Ajaccio, France

9:55 AM CET on February 23, 2018 (GMT +0100)
Campo Dell' Oro

Weather History for LFKJ - April, 2013

Change the Weather History Date:

Sunday, April 7, 2013

  Actual Average Record
Temperature  
Mean Temperature 56 °F -  
Max Temperature 63 °F 64 °F 71 °F (2002)
Min Temperature 48 °F 46 °F 36 °F (2015)
Degree Days  
Heating Degree Days 10    
Growing Degree Days 6 (Base 50)    
Moisture  
Dew Point 51 °F    
Average Humidity 85    
Maximum Humidity 100    
Minimum Humidity 59    
Precipitation  
Precipitation 0.12 in 0.06 in - ()
Sea Level Pressure  
Sea Level Pressure 29.78 in    
Wind  
Wind Speed 5 mph ()    
Max Wind Speed 16 mph    
Max Gust Speed 21 mph    
Visibility 6.5 miles    
Events Rain    
Averages and records for this station are not official NWS values.
T = Trace of Precipitation, MM = Missing Value Source: Averaged Metar Reports

Daily Weather History Graph

Daily Weather History Graph

Search for Another Location

Airport or City:

Trip Planner

Search our weather history database for the weather conditions in past years. The results will help you decide how hot, cold, wet, or windy it might be!

Date:

Astronomy

Apr. 07, 2013 Rise Set
Actual Time 6:57 AM CEST 7:56 PM CEST
Civil Twilight 6:29 AM CEST 8:25 PM CEST
Nautical Twilight 5:55 AM CEST 8:59 PM CEST
Astronomical Twilight 5:19 AM CEST 9:34 PM CEST
Moon 5:08 AM CEST (4/7) 5:09 PM CEST (4/7)
Length of Visible Light 13h 56m
Length of Day
12h 59m
Waning Crescent, 10% of the Moon is Illuminated
Apr 7
Waning Crescent
Apr 10
New
Apr 18
First Quarter
Apr 25
Full
May 2
Last Quarter

Hourly Weather History & Observations

Time (CEST) Temp. Dew Point Humidity Pressure Visibility Wind Dir Wind Speed Gust Speed Precip Events Conditions
12:00 AM 53.6 °F 51.8 °F 94% 29.74 in 4.3 mi SE 3.5 mph - N/A Rain Light Rain
12:30 AM 51.8 °F 51.8 °F 100% 29.74 in 6.2 mi Variable 3.5 mph - N/A Rain Light Rain
1:00 AM 51.8 °F 51.8 °F 100% 29.74 in 6.2 mi East 2.3 mph - N/A Rain Light Rain
1:30 AM 51.8 °F 51.8 °F 100% 29.74 in 3.7 mi ENE 3.5 mph - N/A Rain Rain
2:00 AM 52 °F 51 °F 93% 29.76 in 22 mi ENE 3.5 mph - - Rain Light Rain
2:00 AM 51.8 °F 50.0 °F 94% 29.74 in 6.2 mi ENE 3.5 mph - N/A Rain Light Rain
2:30 AM 51.8 °F 50.0 °F 94% 29.74 in 6.2 mi Calm Calm - N/A Rain Light Rain
3:00 AM 51.8 °F 50.0 °F 94% 29.74 in 6.2 mi NE 2.3 mph - N/A   Overcast
3:30 AM 51.8 °F 50.0 °F 94% 29.74 in 6.2 mi NE 3.5 mph - N/A   Overcast
4:00 AM 51.8 °F 50.0 °F 94% 29.74 in 6.2 mi NE 3.5 mph - N/A   Overcast
4:30 AM 51.8 °F 50.0 °F 94% 29.74 in 6.2 mi Variable 2.3 mph - N/A   Mostly Cloudy
5:00 AM 50.0 °F 50.0 °F 100% 29.74 in 6.2 mi NE 4.6 mph - N/A   Overcast
5:30 AM 50.0 °F 50.0 °F 100% 29.74 in 6.2 mi NE 6.9 mph - N/A   Mostly Cloudy
6:00 AM 50.0 °F 48.2 °F 94% 29.74 in 6.2 mi ENE 6.9 mph - N/A   Overcast
6:30 AM 50.0 °F 48.2 °F 94% 29.74 in 6.2 mi NE 5.8 mph - N/A   Overcast
7:00 AM 50.0 °F 48.2 °F 94% 29.74 in 6.2 mi NE 5.8 mph - N/A   Mostly Cloudy
7:30 AM 48.2 °F 48.2 °F 100% 29.74 in 6.2 mi NE 4.6 mph - N/A   Mostly Cloudy
8:00 AM 49 °F 48 °F 97% 29.77 in 25 mi NE 4.6 mph - -   Clear
8:00 AM 50.0 °F 48.2 °F 94% 29.77 in 6.2 mi NE 4.6 mph - N/A   Mostly Cloudy
8:30 AM 50.0 °F 50.0 °F 100% 29.77 in 6.2 mi NNE 3.5 mph - N/A   Scattered Clouds
9:00 AM 51.8 °F 50.0 °F 94% 29.77 in 6.2 mi NE 4.6 mph - N/A   Mostly Cloudy
9:30 AM 51.8 °F 50.0 °F 94% 29.77 in 6.2 mi ENE 3.5 mph - N/A   Mostly Cloudy
10:00 AM 53.6 °F 51.8 °F 94% 29.77 in 6.2 mi Variable 3.5 mph - N/A   Mostly Cloudy
10:30 AM 55.4 °F 51.8 °F 88% 29.80 in 6.2 mi Variable 2.3 mph - N/A   Mostly Cloudy
11:00 AM 57.2 °F 51.8 °F 82% 29.80 in 6.2 mi SW 3.5 mph - N/A   Mostly Cloudy
11:30 AM 59.0 °F 50.0 °F 72% 29.80 in 6.2 mi Variable 2.3 mph - N/A   Mostly Cloudy
12:00 PM 59.0 °F 50.0 °F 72% 29.80 in 6.2 mi SW 3.5 mph - N/A   Scattered Clouds
12:30 PM 60.8 °F 51.8 °F 72% 29.77 in 6.2 mi SW 5.8 mph - N/A   Scattered Clouds
1:00 PM 60.8 °F 51.8 °F 72% 29.77 in 6.2 mi WSW 9.2 mph - N/A   Scattered Clouds
1:30 PM 60.8 °F 55.4 °F 82% 29.77 in 6.2 mi SW 11.5 mph - N/A   Scattered Clouds
2:00 PM 61 °F 54 °F 70% 29.79 in 19 mi SW 10.4 mph - -   Mostly Cloudy
2:00 PM 60.8 °F 53.6 °F 77% 29.77 in 6.2 mi SW 11.5 mph - N/A   Scattered Clouds
2:30 PM 60.8 °F 53.6 °F 77% 29.77 in 6.2 mi WSW 12.7 mph - N/A   Scattered Clouds
3:00 PM 60.8 °F 55.4 °F 82% 29.77 in 6.2 mi SSW 11.5 mph - N/A   Scattered Clouds
3:30 PM 60.8 °F 55.4 °F 82% 29.77 in 6.2 mi SW 11.5 mph - N/A   Partly Cloudy
4:00 PM 62.6 °F 53.6 °F 72% 29.77 in 6.2 mi South 9.2 mph - N/A   Scattered Clouds
4:05 PM 62.6 °F 53.6 °F 72% 29.77 in 6.2 mi South 11.5 mph - N/A   Scattered Clouds
4:30 PM 62.6 °F 50.0 °F 63% 29.77 in 6.2 mi West 10.4 mph - N/A   Scattered Clouds
5:00 PM 64.4 °F 50.0 °F 59% 29.77 in 6.2 mi WNW 10.4 mph - N/A   Scattered Clouds
6:00 PM 60.8 °F 50.0 °F 68% 29.77 in 6.2 mi NW 16.1 mph - N/A   Scattered Clouds
6:30 PM 60.8 °F 51.8 °F 72% 29.77 in 6.2 mi NW 16.1 mph - N/A   Scattered Clouds
7:00 PM 59.0 °F 51.8 °F 77% 29.80 in 6.2 mi NW 15.0 mph - N/A   Scattered Clouds
7:30 PM 57.2 °F 50.0 °F 77% 29.80 in 6.2 mi Variable 9.2 mph 20.7 mph N/A   Scattered Clouds
8:00 PM 57 °F 50 °F 70% 29.84 in 12 mi South 4.6 mph - -   Mostly Cloudy
8:00 PM 57.2 °F 50.0 °F 77% 29.83 in 6.2 mi Variable 4.6 mph - N/A   Scattered Clouds
8:30 PM 57.2 °F 50.0 °F 77% 29.86 in 6.2 mi Variable 2.3 mph - N/A   Scattered Clouds
9:00 PM 55.4 °F 48.2 °F 77% 29.86 in 6.2 mi ENE 5.8 mph - N/A   Scattered Clouds
10:00 PM 55.4 °F 50.0 °F 82% 29.89 in 6.2 mi ESE 4.6 mph - N/A   Scattered Clouds
10:30 PM 53.6 °F 50.0 °F 88% 29.89 in 6.2 mi ENE 4.6 mph - N/A   Scattered Clouds
11:00 PM 53.6 °F 50.0 °F 88% 29.89 in 6.2 mi Variable 3.5 mph - N/A   Scattered Clouds
11:30 PM 53.6 °F 48.2 °F 82% 29.89 in 6.2 mi Variable 2.3 mph - N/A   Mostly Cloudy